This is the latest recevied weather packets stored in our database for station/object SV9TNF-2. If no packets are shown the sender has not sent any weather packets the latest 10 day(s).
| Time | Temp. | Humidity | Pressure | Rain* | Wind** | Luminosity | Snow |
|---|---|---|---|---|---|---|---|
| 1777902325 | 19.44° C | 42% | 1025.7 hPa | 0 mm | 5.81 m/s, 308° | - | - |
| 1777902025 | 19.44° C | 41% | 1025.7 hPa | 0 mm | 4.47 m/s, 335° | - | - |
| 1777901725 | 20° C | 41% | 1025.7 hPa | 0 mm | 4.47 m/s, 89° | - | - |
| 1777901425 | 20° C | 39% | 1025.7 hPa | 0 mm | 3.13 m/s, 312° | - | - |
| 1777901125 | 19.44° C | 41% | 1025.7 hPa | 0 mm | 6.26 m/s, 342° | - | - |
| 1777900824 | 20° C | 38% | 1025.7 hPa | 0 mm | 2.68 m/s, 232° | - | - |
| 1777900524 | 19.44° C | 39% | 1025.7 hPa | 0 mm | 3.58 m/s, 186° | - | - |
| 1777900224 | 18.89° C | 40% | 1025.7 hPa | 0 mm | 12.07 m/s, 289° | - | - |
| 1777899925 | 19.44° C | 38% | 1025.7 hPa | 0 mm | 8.05 m/s, 47° | - | - |
| 1777899624 | 20° C | 37% | 1025.7 hPa | 0 mm | 4.02 m/s, 317° | - | - |
| 1777899324 | 20.56° C | 37% | 1025.7 hPa | 0 mm | 3.58 m/s, 341° | - | - |
| 1777899024 | 20.56° C | 37% | 1025.7 hPa | 0 mm | 4.02 m/s, 8° | - | - |
| 1777898724 | 20.56° C | 36% | 1025.7 hPa | 0 mm | 4.92 m/s, 262° | - | - |
| 1777898424 | 19.44° C | 39% | 1025.7 hPa | 0 mm | 7.6 m/s, 253° | - | - |
| 1777898124 | 19.44° C | 38% | 1026.1 hPa | 0 mm | 4.92 m/s, 218° | - | - |
| 1777897824 | 18.89° C | 41% | 1026.1 hPa | 0 mm | 5.81 m/s, 26° | - | - |
| 1777897523 | 18.89° C | 43% | 1026.1 hPa | 0 mm | 6.26 m/s, 230° | - | - |
| 1777897223 | 18.33° C | 43% | 1026.1 hPa | 0 mm | 8.49 m/s, 37° | - | - |
| 1777896923 | 18.33° C | 40% | 1026.1 hPa | 0 mm | 10.73 m/s, 19° | - | - |
| 1777896623 | 19.44° C | 40% | 1026.4 hPa | 0 mm | 5.36 m/s, 83° | - | - |
| 1777896323 | 18.89° C | 41% | 1026.4 hPa | 0 mm | 6.71 m/s, 105° | - | - |
| 1777896023 | 19.44° C | 40% | 1026.4 hPa | 0 mm | 5.36 m/s, 53° | - | - |
| 1777895723 | 19.44° C | 40% | 1026.4 hPa | 0 mm | 5.81 m/s, 355° | - | - |
| 1777895423 | 18.89° C | 40% | 1026.4 hPa | 0 mm | 7.6 m/s, 86° | - | - |
| 1777895123 | 18.89° C | 42% | 1026.4 hPa | 0 mm | 3.13 m/s, 359° | - | - |
* Rain latest hour (hover to see other rain measurements)
** Current wind speed in m/s (hover to see current wind gust speed)